Zurück zum Katalog

NAVSTAR 15

USA 42

AktivNavigationMEO
NORAD 20185·PAYLOAD·🇺🇸 United States

Gestartet Aug 18, 1989 von Cape Canaveral Space Force Station

Loading…

Nächste Überflüge (nächste 24 Stunden)

TLE

AktuellSource: Space-Track

Epoche: Sep 7, 2026, 22:27 UTC

1 20185U 89064A   26250.93546580  .00000025  00000-0  00000-0 0  9995
2 20185  55.0361  86.5492 0008642 346.8131 191.2167  1.86088523257741

Verfolge NAVSTAR 15 in Echtzeit mit AllMySat

Download on the App Store